SCP
0 0 0 0 0 0 0 0 0 0 0 0 0 0 0 0 0 0 0 0 0 0 0 0 0 0 0 0 0 0 0 0 0 0 0 0 0 0 0 0 0 0 0 0
0 0 0 0 0 0 0 0 0 0 0 0 0 0 0 0 0 0 0 0 0 0 0 0 0 0 0 0 0 0 0 0 0 0 0 0 0 0 0 0 0 0 0 0
0 0 0 0 0 0 0 0 0 0 0 0 0 0 0 0 0 0 0 0 0 0 0 0 0 0 0 0 0 0 0 0 0 0 0 0 0 0 0 0 0 0 0 0
0 0 0 0 0 0 0 0 0 0 0 0 0 0 0 0 0 0 0 0 0 0 0 0 0 0 0 0 0 0 0 0 0 0 0 0 0 0 0 0 0 0 0 0
0 0 0 0 0 0 0 0 0 0 0 0 0 0 0 0 0 0 0 0 0 0 0 0 0 -0 0 0 0 0 0 0 0 0 0 0 0 0 0 0 0 0 0 0
0 0 0 0 0 0 0 0 0 0 0 0 0 0 0 0 0 0 0 0 0 0 0 0 0 0 0 -0 -0 0 0 0 0 0 0 0 0 0 0 0 0 0 0 -0
0 0 0 0 0 0 0 0 0 0 0 0 0 0 0 0 0 0 0 0 0 0 0 0 0 0 0 0 0 0 0 0 0 0 0 0 0 0 0 0 0 0 0 0
0 0 0 0 0 0 0 0 0 0 0 0 0 0 0 0 0 0 0 0 0 0 0 0 0 0 0 0 0 0 0 0 0 0 0 0 0 0 0 0 0 0 0 0
0 0 0 0 0 0 0 0 0 0 0 0 0 0 0 0 0 0 0 0 0 0 0 0 0 -0 -0 -0 -0 -0 0 0 0 0 0 0 0 -0 0 0 0 0 0 0
0 0 0 0 0 0 0 0 0 0 0 0 0 0 0 0 0 0 0 0 0 0 0 0 0 0 0 -0 -0 0 0 0 0 0 0 0 0 0 0 0 0 0 0 0
0 0 0 0 0 0 0 0 0 0 0 0 0 0 0 0 0 0 0 0 0 0 0 0 0 0 0 0 0 0 0 0 0 0 0 0 0 0 0 0 0 0 0 0
0 0 0 0 0 0 0 0 0 0 0 0 0 0 0 0 0 0 0 0 0 0 0 0 0 0 0 0 -0 0 -0 0 0 0 0 0 0 0 0 0 0 0 0 0
0 0 0 0 0 0 0 0 0 0 0 0 0 0 0 0 0 0 0 0 0 0 0 0 0 0 0 0 -0 -0 -0 0 0 0 0 0 0 0 0 0 0 0 0 0
0 0 0 0 0 0 0 0 0 0 0 0 0 0 0 0 0 0 0 0 0 0 0 0 -0 -0 0 0 0 0 0 0 0 0 0 0 0 0 0 0 0 0 0 0
0 0 0 0 0 0 0 0 0 0 0 0 0 0 0 0 0 0 0 0 0 0 0 0 0 0 0 0 0 0 0 0 0 0 0 0 0 0 0 0 0 0 0 0
0 0 0 0 0 0 0 0 0 0 0 0 -0 0 0 0 0 0 0 0 0 0 0 0 0 0 0 0 0 0 0 0 0 0 0 0 0 0 0 0 0 0 0 0
0 -0 -0 -0 -0 -0 0 0 0 0 0 0 -0 -0 0 0 0 0 0 0 0 0 0 0 0 0 0 0 0 0 0 0 0 0 0 0 0 0 0 0 0 0 0 0
0 0 0 -0 0 -0 0 0 0 0 0 0 0 0 0 0 0 -0 0 0 0 0 0 0 0 0 0 0 0 0 0 0 0 0 0 0 0 0 0 0 0 0 0 0
0 0 0 0 0 0 -0 0 0 0 0 0 0 0 -0 0 0 -0 -0 0 0 0 0 0 0 0 0 0 0 0 0 0 0 0 0 0 0 0 0 0 0 0 0 0
0 0 0 0 0 0 0 0 0 0 0 0 0 0 0 0 0 -0 -0 0 0 0 0 0 0 0 0 0 0 0 0 0 0 0 0 0 0 0 0 0 0 0 0 0
0 0 0 0 0 0 0 0 0 0 0 0 0 0 -0 0 -0 -0 -0 0 0 0 0 0 0 0 0 0 0 0 0 0 0 0 0 0 0 0 0 0 0 0 0 0
0 0 0 0 0 0 0 0 0 0 0 0 0 0 0 -0 -0 -0 -0 0 0 0 0 0 0 0 0 0 0 0 0 0 0 0 0 0 0 0 0 0 0 0 0 0
0 0 0 0 0 0 0 0 0 0 0 0 0 0 -0 -0 -0 -0 -0 0 0 0 0 0 0 0 0 0 0 0 0 0 0 0 0 0 0 0 0 0 0 0 0 0
0 0 0 0 0 0 0 0 0 0 0 0 0 0 -0 -0 -0 -0 -0 -0 0 0 0 0 0 0 0 0 0 0 0 0 0 0 0 0 0 0 0 0 0 0 0 0
0 0 0 0 0 0 0 0 0 0 0 0 0 0 -0 -0 0 0 0 0 0 0 0 0 0 0 0 0 0 0 0 0 0 0 0 0 0 0 0 0 0 0 0 0
0 0 0 0 0 0 0 0 0 0 0 0 0 0 0 0 0 0 0 0 0 0 0 -0 0 0 0 0 0 0 0 0 0 0 0 0 0 0 0 0 0 0 0 0
0 0 0 0 0 0 0 0 0 0 0 0 0 0 0 0 0 0 0 0 0 0 0 0 0 0 0 0 0 0 0 0 0 0 0 0 0 0 0 0 0 0 0 0
Wind_Speed_500mb
121 121 122 121 128 127 106 40 7 97 99 19 15 15 18 12 17 11 9 3 7 14 38 30 36 49 46 41 32 34 23 1 7 35 20 27 38 25 40 14 27 8 4 23
113 119 122 123 126 123 90 35 15 80 81 13 10 13 13 8 8 9 10 5 5 6 10 24 36 18 42 9 38 33 37 12 10 11 15 7 34 46 50 47 4 34 19 29
106 113 117 118 118 95 78 27 9 15 33 15 11 15 14 10 14 12 13 6 12 9 5 2 8 23 5 16 22 69 40 23 17 27 13 10 39 50 48 50 29 47 42 57
94 99 104 112 106 82 64 14 4 10 19 9 10 10 18 18 11 9 19 7 13 17 9 15 14 13 9 20 14 7 21 43 46 48 36 17 23 52 52 47 65 37 62 41
99 103 111 110 91 71 36 16 15 18 11 35 14 7 15 30 11 16 13 10 29 17 15 21 18 21 14 10 9 11 11 11 34 46 44 45 41 41 53 55 59 50 63 48
101 106 102 96 78 57 25 22 38 25 11 8 11 10 12 13 15 7 20 26 10 20 35 32 21 22 16 12 16 16 7 21 14 35 26 17 28 57 59 63 68 67 62 80
97 85 86 77 65 40 25 48 31 17 4 12 11 6 6 11 16 10 8 17 17 7 17 9 19 38 35 27 23 18 17 17 25 19 27 49 34 10 57 66 69 61 66 49
69 73 70 60 47 33 22 40 18 13 5 7 5 14 9 17 13 8 9 13 11 7 11 5 6 5 4 20 31 34 34 19 12 15 41 29 18 17 40 55 67 60 59 64
59 66 66 68 54 37 32 32 24 15 13 13 18 12 18 8 8 3 7 28 23 15 5 5 10 9 12 9 11 46 40 36 24 25 36 56 52 67 40 28 47 50 67 66
49 51 51 49 52 45 31 21 13 11 11 11 27 8 17 18 14 3 4 9 18 39 6 6 8 16 6 16 14 13 21 18 36 38 34 21 29 23 66 37 43 68 84 93
48 45 44 41 40 40 36 30 23 10 9 12 27 27 22 18 20 9 8 4 9 9 11 9 9 10 15 9 12 18 26 17 24 27 23 33 28 45 53 69 67 15 91 113
44 39 40 41 32 23 22 19 25 25 15 6 19 31 32 27 20 25 18 11 10 18 9 10 7 11 7 21 28 8 12 23 26 23 27 7 62 45 49 38 62 62 66 58
48 42 39 37 29 24 20 16 23 24 9 10 26 28 34 45 45 38 16 20 34 21 26 7 7 13 10 16 16 5 8 8 15 8 33 21 45 37 82 35 52 51 45 41
45 42 39 35 29 23 18 22 26 21 11 3 7 12 27 31 36 39 43 54 36 22 22 10 13 11 16 8 5 8 4 9 19 27 5 8 25 71 46 58 29 19 24 26
38 36 33 29 28 22 15 13 17 11 7 7 6 16 25 29 32 36 40 42 57 35 11 13 12 10 8 4 2 4 11 3 8 10 19 24 11 13 64 56 58 55 29 25
35 36 34 30 24 17 9 7 3 6 4 0 4 4 10 14 19 29 57 64 55 37 18 11 15 19 12 12 9 12 19 22 16 8 52 64 66 44 18 35 47 41 41 39
22 23 24 20 15 9 5 7 5 6 6 2 5 7 4 8 21 29 40 45 36 33 18 12 7 4 9 2 5 28 40 41 39 18 46 20 15 27 29 20 30 39 37 37
25 27 27 25 27 13 8 10 2 5 4 3 2 8 5 6 8 12 12 10 31 29 14 9 5 7 12 9 28 41 47 57 15 26 34 42 52 42 29 19 23 33 36 39
18 19 21 16 5 5 5 2 9 11 4 7 6 4 7 19 9 13 9 9 5 4 2 5 9 8 12 18 38 42 48 42 52 57 29 27 21 27 15 8 19 28 32 35
11 10 5 5 5 7 6 4 3 3 11 12 3 12 6 15 8 8 6 9 4 2 5 13 9 6 10 39 37 34 40 39 39 47 34 52 40 36 26 8 5 13 27 39
4 4 5 6 6 3 6 8 14 17 9 21 17 9 7 12 5 6 8 5 4 3 5 6 6 5 17 52 51 43 42 40 32 27 25 29 32 36 26 12 4 4 17 30
9 9 7 8 11 10 13 2 9 10 2 19 10 16 15 20 12 6 7 5 4 5 7 7 5 5 36 50 51 45 41 36 37 34 29 25 21 18 17 15 8 5 14 25
9 4 8 16 17 20 12 9 9 8 19 18 26 14 13 15 10 8 5 6 3 4 8 5 3 23 46 50 46 41 38 40 39 36 33 28 26 22 22 25 22 17 18 24
12 15 15 8 9 3 7 7 6 11 17 40 37 13 7 11 6 5 8 7 10 7 8 6 7 35 44 39 38 46 51 43 39 41 39 40 40 38 31 29 27 26 29 33
13 14 6 5 1 4 8 15 16 12 28 37 17 16 8 5 6 7 7 9 9 8 4 5 24 33 34 44 46 44 42 41 42 41 44 45 42 41 39 35 30 30 34 37
12 16 7 8 2 9 14 14 16 25 40 16 7 4 5 7 3 9 9 6 5 2 2 19 27 28 33 35 35 33 35 40 42 41 41 39 39 39 38 32 33 32 28 27
10 9 14 10 3 7 14 23 24 41 16 2 1 9 4 6 6 7 7 4 5 17 20 18 20 25 28 29 33 40 40 39 38 37 36 36 35 31 26 32 33 28 24 21
Wind_Direction_500mb
165 159 161 162 160 160 149 131 108 165 170 164 188 172 151 162 146 107 127 149 93 152 178 193 191 218 207 193 190 201 188 124 227 222 213 228 208 205 203 212 218 222 178 258
148 156 159 161 160 161 148 121 99 165 171 175 155 128 133 127 127 178 148 122 92 100 141 197 204 204 228 135 189 193 200 195 209 172 242 274 212 208 202 212 84 216 218 255
153 153 153 156 157 157 148 116 122 112 169 138 124 122 144 115 149 141 153 114 75 123 112 322 165 248 326 222 195 213 179 204 219 232 244 122 213 215 213 206 224 234 227 247
155 152 155 159 156 157 151 104 104 141 168 165 138 111 146 132 150 160 160 136 176 164 152 165 204 205 217 277 287 299 236 228 231 234 236 247 237 217 208 206 222 218 240 236
157 158 157 156 154 158 162 119 133 95 89 120 92 164 190 171 151 146 203 193 197 176 179 189 178 173 186 187 196 230 235 238 221 243 246 243 242 230 216 217 226 230 248 245
157 152 155 156 157 168 145 106 116 128 128 104 128 205 180 161 113 182 159 201 130 203 228 226 232 197 168 174 167 177 266 236 226 233 222 227 246 219 219 218 225 217 230 235
148 154 150 157 163 163 148 129 125 103 154 156 196 81 116 151 182 111 178 177 184 296 191 325 265 252 242 201 217 235 203 264 245 257 204 229 236 229 219 220 224 220 232 240
149 156 159 157 165 171 159 142 120 114 102 140 64 143 123 154 149 186 168 200 194 11 34 50 285 221 213 229 229 209 214 187 259 276 247 261 271 213 200 209 233 228 234 244
159 166 173 179 179 162 152 151 106 97 116 215 140 148 161 141 145 7 235 255 256 271 155 132 213 238 202 248 223 205 201 211 204 237 268 239 239 235 190 189 250 223 222 235
158 165 172 181 187 192 184 170 172 96 87 142 161 144 171 155 168 187 72 192 201 215 168 190 200 248 256 232 184 152 193 199 218 230 241 255 237 164 153 185 230 232 215 228
154 158 166 185 190 202 208 210 219 191 119 166 192 192 151 136 170 164 160 118 226 162 193 183 215 232 221 218 205 180 186 187 222 220 216 255 161 147 169 214 209 253 210 224
149 151 154 164 166 180 185 205 211 207 197 200 212 217 207 231 223 189 194 208 163 209 207 209 194 227 212 233 241 177 205 195 215 208 224 320 173 196 192 219 203 233 219 227
135 137 139 141 147 154 166 177 182 180 185 262 262 242 229 231 232 232 213 229 228 221 231 262 231 236 168 215 237 143 250 133 235 154 237 227 216 220 206 210 217 231 237 235
130 134 138 143 144 140 135 148 167 167 134 158 261 229 230 227 220 228 241 246 238 252 255 239 236 271 207 207 261 197 135 157 201 250 293 331 243 225 233 228 230 235 231 236
121 128 139 141 134 130 134 152 158 163 179 190 262 271 266 246 236 242 238 265 248 243 230 224 227 223 218 248 97 168 352 299 209 212 15 316 278 272 246 244 237 242 272 262
110 118 126 127 123 121 117 128 149 11 220 9 310 285 227 211 244 245 269 264 236 214 204 217 246 257 275 188 185 46 3 333 314 290 320 297 288 303 286 246 244 239 241 242
118 145 141 142 143 142 113 104 44 0 172 146 315 315 224 232 270 265 264 251 215 205 222 231 198 262 266 56 123 349 342 325 314 327 337 300 275 321 315 258 229 224 225 222
104 114 129 133 127 113 90 45 60 57 144 127 96 281 344 321 272 277 248 258 198 208 225 201 131 53 357 63 351 341 341 337 322 324 332 302 310 306 305 268 222 208 205 208
114 123 133 129 126 140 312 114 102 66 98 117 91 116 276 341 269 272 283 272 244 267 218 71 73 22 44 348 338 342 344 342 319 321 321 327 337 325 326 250 214 210 189 201
117 139 147 125 345 353 82 68 71 102 37 45 74 342 270 335 320 283 308 274 274 262 59 91 62 78 92 3 349 337 337 333 340 347 342 330 332 343 343 322 264 219 204 190
112 91 81 28 38 105 66 59 43 346 26 8 348 350 322 312 278 279 281 298 291 290 37 75 58 52 352 345 353 354 355 356 356 352 329 314 315 324 340 346 352 216 207 194
96 113 87 43 37 52 73 354 342 45 263 339 333 313 297 294 293 276 299 278 325 24 41 64 62 15 345 349 355 4 6 6 18 17 7 7 360 10 23 38 59 159 186 177
57 56 64 12 355 41 59 343 327 355 340 16 346 327 306 306 273 280 305 359 346 128 48 72 38 340 347 355 356 9 17 28 34 35 39 42 46 47 59 71 80 99 135 146
46 33 28 63 354 22 185 201 214 306 310 328 326 271 281 301 312 310 321 6 25 44 44 24 358 341 343 351 4 15 22 27 32 40 44 48 52 58 68 73 83 101 116 127
68 48 53 59 307 270 298 297 293 315 308 321 311 281 254 308 320 6 357 24 58 31 354 322 329 336 345 5 14 20 23 27 33 38 44 49 52 57 62 69 80 95 108 117
58 58 74 4 56 350 351 337 315 335 327 315 249 271 23 19 13 38 38 339 33 11 296 313 332 348 358 7 16 20 25 31 37 42 47 51 52 55 59 67 71 72 76 89
60 57 38 48 38 289 326 328 328 333 334 337 14 48 242 304 50 38 11 26 311 317 324 335 343 349 358 10 21 29 32 36 40 43 46 48 49 51 59 61 61 63 70 79
Wind_Speed_850mb
121 121 122 121 128 127 106 40 7 97 99 19 15 15 18 12 17 11 9 3 7 14 38 30 36 49 46 41 32 34 23 1 7 35 20 27 38 25 40 14 27 8 4 23
113 119 122 123 126 123 90 35 15 80 81 13 10 13 13 8 8 9 10 5 5 6 10 24 36 18 42 9 38 33 37 12 10 11 15 7 34 46 50 47 4 34 19 29
106 113 117 118 118 95 78 27 9 15 33 15 11 15 14 10 14 12 13 6 12 9 5 2 8 23 5 16 22 69 40 23 17 27 13 10 39 50 48 50 29 47 42 57
94 99 104 112 106 82 64 14 4 10 19 9 10 10 18 18 11 9 19 7 13 17 9 15 14 13 9 20 14 7 21 43 46 48 36 17 23 52 52 47 65 37 62 41
99 103 111 110 91 71 36 16 15 18 11 35 14 7 15 30 11 16 13 10 29 17 15 21 18 21 14 10 9 11 11 11 34 46 44 45 41 41 53 55 59 50 63 48
101 106 102 96 78 57 25 22 38 25 11 8 11 10 12 13 15 7 20 26 10 20 35 32 21 22 16 12 16 16 7 21 14 35 26 17 28 57 59 63 68 67 62 80
97 85 86 77 65 40 25 48 31 17 4 12 11 6 6 11 16 10 8 17 17 7 17 9 19 38 35 27 23 18 17 17 25 19 27 49 34 10 57 66 69 61 66 49
69 73 70 60 47 33 22 40 18 13 5 7 5 14 9 17 13 8 9 13 11 7 11 5 6 5 4 20 31 34 34 19 12 15 41 29 18 17 40 55 67 60 59 64
59 66 66 68 54 37 32 32 24 15 13 13 18 12 18 8 8 3 7 28 23 15 5 5 10 9 12 9 11 46 40 36 24 25 36 56 52 67 40 28 47 50 67 66
49 51 51 49 52 45 31 21 13 11 11 11 27 8 17 18 14 3 4 9 18 39 6 6 8 16 6 16 14 13 21 18 36 38 34 21 29 23 66 37 43 68 84 93
48 45 44 41 40 40 36 30 23 10 9 12 27 27 22 18 20 9 8 4 9 9 11 9 9 10 15 9 12 18 26 17 24 27 23 33 28 45 53 69 67 15 91 113
44 39 40 41 32 23 22 19 25 25 15 6 19 31 32 27 20 25 18 11 10 18 9 10 7 11 7 21 28 8 12 23 26 23 27 7 62 45 49 38 62 62 66 58
48 42 39 37 29 24 20 16 23 24 9 10 26 28 34 45 45 38 16 20 34 21 26 7 7 13 10 16 16 5 8 8 15 8 33 21 45 37 82 35 52 51 45 41
45 42 39 35 29 23 18 22 26 21 11 3 7 12 27 31 36 39 43 54 36 22 22 10 13 11 16 8 5 8 4 9 19 27 5 8 25 71 46 58 29 19 24 26
38 36 33 29 28 22 15 13 17 11 7 7 6 16 25 29 32 36 40 42 57 35 11 13 12 10 8 4 2 4 11 3 8 10 19 24 11 13 64 56 58 55 29 25
35 36 34 30 24 17 9 7 3 6 4 0 4 4 10 14 19 29 57 64 55 37 18 11 15 19 12 12 9 12 19 22 16 8 52 64 66 44 18 35 47 41 41 39
22 23 24 20 15 9 5 7 5 6 6 2 5 7 4 8 21 29 40 45 36 33 18 12 7 4 9 2 5 28 40 41 39 18 46 20 15 27 29 20 30 39 37 37
25 27 27 25 27 13 8 10 2 5 4 3 2 8 5 6 8 12 12 10 31 29 14 9 5 7 12 9 28 41 47 57 15 26 34 42 52 42 29 19 23 33 36 39
18 19 21 16 5 5 5 2 9 11 4 7 6 4 7 19 9 13 9 9 5 4 2 5 9 8 12 18 38 42 48 42 52 57 29 27 21 27 15 8 19 28 32 35
11 10 5 5 5 7 6 4 3 3 11 12 3 12 6 15 8 8 6 9 4 2 5 13 9 6 10 39 37 34 40 39 39 47 34 52 40 36 26 8 5 13 27 39
4 4 5 6 6 3 6 8 14 17 9 21 17 9 7 12 5 6 8 5 4 3 5 6 6 5 17 52 51 43 42 40 32 27 25 29 32 36 26 12 4 4 17 30
9 9 7 8 11 10 13 2 9 10 2 19 10 16 15 20 12 6 7 5 4 5 7 7 5 5 36 50 51 45 41 36 37 34 29 25 21 18 17 15 8 5 14 25
9 4 8 16 17 20 12 9 9 8 19 18 26 14 13 15 10 8 5 6 3 4 8 5 3 23 46 50 46 41 38 40 39 36 33 28 26 22 22 25 22 17 18 24
12 15 15 8 9 3 7 7 6 11 17 40 37 13 7 11 6 5 8 7 10 7 8 6 7 35 44 39 38 46 51 43 39 41 39 40 40 38 31 29 27 26 29 33
13 14 6 5 1 4 8 15 16 12 28 37 17 16 8 5 6 7 7 9 9 8 4 5 24 33 34 44 46 44 42 41 42 41 44 45 42 41 39 35 30 30 34 37
12 16 7 8 2 9 14 14 16 25 40 16 7 4 5 7 3 9 9 6 5 2 2 19 27 28 33 35 35 33 35 40 42 41 41 39 39 39 38 32 33 32 28 27
10 9 14 10 3 7 14 23 24 41 16 2 1 9 4 6 6 7 7 4 5 17 20 18 20 25 28 29 33 40 40 39 38 37 36 36 35 31 26 32 33 28 24 21
Wind_Direction_850mb
165 159 161 162 160 160 149 131 108 165 170 164 188 172 151 162 146 107 127 149 93 152 178 193 191 218 207 193 190 201 188 124 227 222 213 228 208 205 203 212 218 222 178 258
148 156 159 161 160 161 148 121 99 165 171 175 155 128 133 127 127 178 148 122 92 100 141 197 204 204 228 135 189 193 200 195 209 172 242 274 212 208 202 212 84 216 218 255
153 153 153 156 157 157 148 116 122 112 169 138 124 122 144 115 149 141 153 114 75 123 112 322 165 248 326 222 195 213 179 204 219 232 244 122 213 215 213 206 224 234 227 247
155 152 155 159 156 157 151 104 104 141 168 165 138 111 146 132 150 160 160 136 176 164 152 165 204 205 217 277 287 299 236 228 231 234 236 247 237 217 208 206 222 218 240 236
157 158 157 156 154 158 162 119 133 95 89 120 92 164 190 171 151 146 203 193 197 176 179 189 178 173 186 187 196 230 235 238 221 243 246 243 242 230 216 217 226 230 248 245
157 152 155 156 157 168 145 106 116 128 128 104 128 205 180 161 113 182 159 201 130 203 228 226 232 197 168 174 167 177 266 236 226 233 222 227 246 219 219 218 225 217 230 235
148 154 150 157 163 163 148 129 125 103 154 156 196 81 116 151 182 111 178 177 184 296 191 325 265 252 242 201 217 235 203 264 245 257 204 229 236 229 219 220 224 220 232 240
149 156 159 157 165 171 159 142 120 114 102 140 64 143 123 154 149 186 168 200 194 11 34 50 285 221 213 229 229 209 214 187 259 276 247 261 271 213 200 209 233 228 234 244
159 166 173 179 179 162 152 151 106 97 116 215 140 148 161 141 145 7 235 255 256 271 155 132 213 238 202 248 223 205 201 211 204 237 268 239 239 235 190 189 250 223 222 235
158 165 172 181 187 192 184 170 172 96 87 142 161 144 171 155 168 187 72 192 201 215 168 190 200 248 256 232 184 152 193 199 218 230 241 255 237 164 153 185 230 232 215 228
154 158 166 185 190 202 208 210 219 191 119 166 192 192 151 136 170 164 160 118 226 162 193 183 215 232 221 218 205 180 186 187 222 220 216 255 161 147 169 214 209 253 210 224
149 151 154 164 166 180 185 205 211 207 197 200 212 217 207 231 223 189 194 208 163 209 207 209 194 227 212 233 241 177 205 195 215 208 224 320 173 196 192 219 203 233 219 227
135 137 139 141 147 154 166 177 182 180 185 262 262 242 229 231 232 232 213 229 228 221 231 262 231 236 168 215 237 143 250 133 235 154 237 227 216 220 206 210 217 231 237 235
130 134 138 143 144 140 135 148 167 167 134 158 261 229 230 227 220 228 241 246 238 252 255 239 236 271 207 207 261 197 135 157 201 250 293 331 243 225 233 228 230 235 231 236
121 128 139 141 134 130 134 152 158 163 179 190 262 271 266 246 236 242 238 265 248 243 230 224 227 223 218 248 97 168 352 299 209 212 15 316 278 272 246 244 237 242 272 262
110 118 126 127 123 121 117 128 149 11 220 9 310 285 227 211 244 245 269 264 236 214 204 217 246 257 275 188 185 46 3 333 314 290 320 297 288 303 286 246 244 239 241 242
118 145 141 142 143 142 113 104 44 0 172 146 315 315 224 232 270 265 264 251 215 205 222 231 198 262 266 56 123 349 342 325 314 327 337 300 275 321 315 258 229 224 225 222
104 114 129 133 127 113 90 45 60 57 144 127 96 281 344 321 272 277 248 258 198 208 225 201 131 53 357 63 351 341 341 337 322 324 332 302 310 306 305 268 222 208 205 208
114 123 133 129 126 140 312 114 102 66 98 117 91 116 276 341 269 272 283 272 244 267 218 71 73 22 44 348 338 342 344 342 319 321 321 327 337 325 326 250 214 210 189 201
117 139 147 125 345 353 82 68 71 102 37 45 74 342 270 335 320 283 308 274 274 262 59 91 62 78 92 3 349 337 337 333 340 347 342 330 332 343 343 322 264 219 204 190
112 91 81 28 38 105 66 59 43 346 26 8 348 350 322 312 278 279 281 298 291 290 37 75 58 52 352 345 353 354 355 356 356 352 329 314 315 324 340 346 352 216 207 194
96 113 87 43 37 52 73 354 342 45 263 339 333 313 297 294 293 276 299 278 325 24 41 64 62 15 345 349 355 4 6 6 18 17 7 7 360 10 23 38 59 159 186 177
57 56 64 12 355 41 59 343 327 355 340 16 346 327 306 306 273 280 305 359 346 128 48 72 38 340 347 355 356 9 17 28 34 35 39 42 46 47 59 71 80 99 135 146
46 33 28 63 354 22 185 201 214 306 310 328 326 271 281 301 312 310 321 6 25 44 44 24 358 341 343 351 4 15 22 27 32 40 44 48 52 58 68 73 83 101 116 127
68 48 53 59 307 270 298 297 293 315 308 321 311 281 254 308 320 6 357 24 58 31 354 322 329 336 345 5 14 20 23 27 33 38 44 49 52 57 62 69 80 95 108 117
58 58 74 4 56 350 351 337 315 335 327 315 249 271 23 19 13 38 38 339 33 11 296 313 332 348 358 7 16 20 25 31 37 42 47 51 52 55 59 67 71 72 76 89
60 57 38 48 38 289 326 328 328 333 334 337 14 48 242 304 50 38 11 26 311 317 324 335 343 349 358 10 21 29 32 36 40 43 46 48 49 51 59 61 61 63 70 79